GFSCGP_700_spd_000.txt.gz
Wind_Speed
37 36 45 42 42 37 34 30 34 46 35 34 34 34 37 36 30 22 25 22 23 21 22 25 32 32 26 22 23 25 26 25 23 21 13 16 21 20 19 17 16 15 14 11
40 51 44 39 38 38 37 35 37 40 37 33 35 40 37 32 25 24 22 26 23 27 27 25 26 23 23 21 24 24 22 22 22 18 11 14 20 21 20 18 15 13 11 11
55 43 43 43 40 38 40 39 36 38 33 36 38 41 33 16 17 21 25 25 26 29 31 26 23 15 19 20 22 22 19 20 19 15 11 14 21 24 21 15 12 12 11 8
56 52 22 33 51 40 43 38 40 33 35 25 19 15 28 22 21 17 23 24 28 33 19 16 16 14 14 18 21 19 15 19 16 12 10 12 18 19 17 15 11 9 11 2
54 43 56 43 38 37 43 32 35 31 37 36 36 21 33 24 29 26 29 26 25 11 9 9 10 13 16 19 18 13 16 16 13 9 9 10 16 17 16 14 16 10 11 1
45 40 34 45 45 31 23 32 32 33 36 20 38 29 42 31 30 26 14 17 11 8 6 8 10 14 16 16 9 11 15 14 11 6 6 9 14 14 15 13 17 10 8 1
36 42 36 25 41 39 33 32 11 8 9 12 28 21 27 31 23 11 14 13 8 7 6 7 10 11 12 7 8 12 11 12 7 4 5 9 12 12 13 13 17 10 5 4
39 25 45 43 39 36 45 39 19 7 6 5 17 10 31 11 13 18 15 15 6 6 8 10 10 11 9 5 9 10 8 8 4 2 4 8 9 10 12 14 12 9 6 9
33 32 12 43 41 40 42 41 44 30 19 4 14 24 24 29 21 25 23 13 8 8 7 6 8 6 3 8 8 7 5 3 0 1 5 8 6 9 14 14 10 10 8 10
16 19 37 26 33 48 53 31 29 19 10 6 6 14 21 11 19 24 17 10 6 7 4 4 2 2 6 5 4 5 3 1 0 2 6 5 7 11 14 15 13 12 9 9
44 29 4 27 36 52 43 40 32 29 29 8 3 19 34 20 25 25 14 7 9 5 3 3 3 5 5 4 1 3 2 1 1 3 4 5 7 9 12 12 13 10 8 10
61 24 36 35 16 34 45 42 41 29 10 18 22 28 20 17 28 23 14 12 9 5 4 3 1 2 6 6 2 3 1 1 1 3 4 3 6 6 8 11 9 10 12 14
40 52 26 25 33 26 36 48 43 41 30 27 14 24 23 17 26 20 18 13 3 6 5 5 2 3 6 7 3 3 1 2 4 3 4 4 7 4 8 11 13 14 18 17
30 41 55 25 32 36 35 40 44 40 29 27 32 27 20 28 25 22 17 10 7 8 4 6 4 5 6 8 4 1 2 3 6 5 6 6 7 6 10 14 16 20 21 22
18 40 46 53 40 26 39 43 46 45 41 32 32 31 26 27 24 21 15 16 13 12 7 8 6 6 7 8 6 3 3 5 8 6 7 8 7 8 17 18 18 21 20 19
0 25 43 48 45 43 25 30 48 46 43 34 31 31 28 25 27 21 18 19 16 12 6 10 9 7 9 8 8 4 5 7 9 8 7 9 7 12 17 18 15 17 16 13
20 7 25 40 45 47 37 34 42 52 46 39 34 36 30 26 31 25 21 21 19 12 8 12 12 9 11 9 9 7 5 7 10 9 8 9 7 14 17 16 19 18 17 16
28 11 10 26 38 8 28 38 30 52 49 43 39 39 34 31 26 29 27 18 19 12 7 11 16 12 11 11 9 9 7 8 9 9 9 11 9 12 16 17 16 16 14 13
19 15 10 13 29 15 19 24 29 50 45 45 38 34 32 28 29 22 31 23 17 12 5 6 14 14 10 7 9 9 8 8 9 9 9 12 11 10 12 13 14 12 10 10
15 11 13 2 12 6 22 19 22 26 41 36 33 35 31 33 35 32 23 26 22 13 5 6 16 16 12 9 5 8 9 8 9 9 8 11 11 11 11 10 11 12 9 8
4 14 26 19 6 10 22 8 19 30 21 31 38 30 34 41 31 29 19 23 20 18 9 12 9 14 13 10 9 9 11 9 9 10 9 10 11 11 13 12 9 8 9 8
8 6 3 9 8 6 8 12 12 9 27 29 37 33 35 32 32 30 26 24 24 24 16 13 9 18 14 12 12 13 11 13 10 10 11 11 10 10 11 11 11 10 9 10
5 8 7 3 4 13 16 19 14 14 18 26 35 34 30 29 29 35 32 24 25 23 21 13 11 17 17 16 13 13 14 12 10 9 9 13 11 10 10 9 9 9 9 10
17 12 8 2 11 9 13 10 13 22 26 34 34 35 36 33 32 32 32 30 26 25 25 17 18 17 23 22 17 14 11 11 9 8 7 11 13 11 10 9 8 8 8 10
20 19 15 7 2 8 7 12 21 28 25 30 32 31 27 28 32 34 34 35 31 30 25 23 23 15 15 25 22 18 14 10 7 7 8 8 11 13 11 11 9 8 9 10
20 21 20 14 12 9 8 11 14 20 26 27 29 29 27 30 31 31 31 31 30 28 27 29 24 14 15 27 24 21 18 15 13 8 6 8 8 11 15 13 12 11 10 11

GFSCGP_700_spd_003.txt.gz
Wind_Speed
40 44 57 52 47 41 38 33 34 42 38 33 36 35 36 33 38 32 36 25 20 22 27 30 28 22 21 30 31 29 30 30 29 23 23 22 18 22 24 18 16 14 12 12
43 58 51 48 44 39 42 38 40 46 39 33 37 38 33 29 30 34 23 21 20 21 23 28 30 24 21 18 28 29 30 29 24 21 23 19 16 20 21 18 11 10 12 11
56 55 48 45 42 42 44 44 46 45 37 33 32 40 32 24 27 17 17 18 23 25 29 29 31 22 14 17 22 29 27 25 21 21 21 15 14 19 19 17 12 10 9 12
58 56 20 47 48 43 43 45 43 42 36 27 3 9 26 29 28 21 21 20 17 21 22 28 13 14 15 17 21 24 23 20 20 21 16 12 13 16 16 12 15 12 10 4
57 48 58 31 38 43 53 39 39 37 34 33 41 19 30 27 31 25 23 28 22 26 23 9 8 11 16 16 20 20 18 18 19 18 12 10 12 15 15 14 15 10 6 3
45 46 45 55 35 31 31 34 32 30 33 19 41 15 35 33 22 17 15 10 11 19 13 9 10 13 15 18 17 15 14 17 17 11 9 8 11 13 14 12 17 8 3 3
30 40 31 37 44 43 33 26 6 6 8 9 22 18 35 26 24 21 20 12 12 11 7 10 10 11 13 13 13 11 14 15 12 8 6 7 10 11 13 15 13 9 1 9
33 23 49 41 40 38 47 41 15 6 4 5 18 14 35 19 16 23 13 14 13 9 8 6 8 11 13 13 9 13 12 12 8 5 5 5 7 11 15 10 8 8 8 12
33 32 12 48 41 33 35 48 39 16 9 1 6 25 30 26 24 17 18 17 13 8 4 6 9 12 12 7 12 10 10 7 5 3 3 4 6 10 10 8 8 8 8 11
12 19 34 22 32 46 37 21 36 29 4 4 7 15 22 18 19 9 15 16 14 8 3 8 9 9 9 10 8 7 6 3 2 3 0 3 5 9 8 9 10 8 8 11
38 11 1 34 37 46 45 40 24 27 21 6 1 13 31 26 22 20 18 16 10 2 6 7 8 8 10 8 6 6 3 2 2 2 2 3 4 6 8 8 3 5 8 12
45 27 35 26 19 27 42 50 44 24 17 21 17 30 17 4 10 9 18 14 7 4 6 7 7 7 7 8 6 4 2 2 2 2 3 2 2 4 7 5 6 7 10 13
10 36 24 21 33 25 36 50 53 45 19 25 9 20 23 19 20 19 21 12 6 6 7 9 7 7 8 9 6 2 2 3 3 4 4 3 5 4 8 8 10 13 14 14
7 23 46 27 26 35 32 33 48 46 33 37 37 34 27 19 14 14 21 14 8 4 7 9 9 8 9 9 6 2 2 4 4 6 5 5 6 8 10 13 16 17 19 18
15 12 31 51 44 20 25 30 37 53 49 36 45 35 31 15 18 16 19 16 11 5 10 12 9 10 9 10 6 3 3 6 6 8 7 9 8 12 12 17 19 19 21 18
23 8 17 35 41 49 35 20 32 37 45 43 37 32 27 16 27 19 21 14 10 7 6 13 12 12 10 10 7 5 5 7 9 10 8 12 14 17 18 16 16 17 17 15
25 21 16 28 33 32 33 47 24 27 38 41 38 33 23 21 29 22 21 15 12 11 7 14 13 11 13 11 8 7 6 8 10 11 10 15 16 17 17 15 14 14 13 14
31 24 13 12 15 8 31 35 34 26 27 34 40 36 32 25 24 21 23 21 14 15 9 13 16 13 17 14 12 10 8 8 10 12 12 17 17 19 19 16 15 14 11 9
22 17 7 5 12 3 17 13 25 31 25 26 38 39 30 23 25 26 21 20 14 13 10 14 15 11 17 16 13 11 10 9 10 11 13 15 18 18 18 16 13 10 9 7
6 11 14 4 4 8 12 14 22 26 26 29 38 40 34 28 32 30 25 20 23 17 15 15 19 14 15 16 15 12 10 10 9 11 12 12 15 18 16 14 13 9 8 7
23 3 14 17 6 3 16 15 21 24 16 19 39 40 35 32 28 23 23 22 23 22 16 17 16 16 14 13 11 13 12 11 11 9 10 11 13 14 15 15 13 10 8 9
12 8 1 5 5 3 2 7 17 15 18 23 35 40 39 35 28 25 24 26 26 29 23 19 17 19 17 15 13 15 14 13 12 12 10 9 11 12 13 13 13 12 10 11
4 6 4 1 3 5 14 16 14 9 18 19 32 41 42 33 30 28 29 28 27 23 26 21 18 16 17 17 15 15 17 15 13 13 14 11 11 10 10 10 11 11 10 10
7 7 13 6 5 8 6 11 8 8 9 14 21 33 35 41 31 30 33 29 26 25 31 26 23 19 14 18 18 16 17 14 14 12 15 16 14 13 11 10 10 11 11 10
14 17 19 16 9 4 5 5 6 7 10 10 19 31 38 40 33 35 35 35 29 26 31 30 23 19 17 23 22 21 19 16 14 13 12 16 18 17 15 13 11 10 11 12
11 10 13 16 16 13 8 10 3 4 9 14 21 25 36 37 34 31 30 31 30 28 29 30 25 21 17 27 26 23 21 18 14 12 11 11 18 19 18 16 14 12 11 11

GFSCGP_700_spd_006.txt.gz
Wind_Speed
42 49 67 59 52 47 43 40 45 47 42 38 43 40 38 33 31 25 19 23 24 21 14 16 20 23 30 28 30 32 30 28 27 26 29 27 26 22 23 25 23 18 13 16
44 62 58 55 57 51 46 43 48 49 39 36 41 40 40 33 27 24 25 21 17 19 18 19 21 25 31 26 23 25 29 28 26 27 26 25 24 20 22 21 18 14 16 14
58 57 52 49 48 47 49 47 48 46 37 38 37 45 40 30 24 27 22 15 13 17 20 22 26 26 30 28 18 18 27 26 25 26 23 24 21 19 21 19 16 18 15 13
54 56 31 51 48 43 47 49 44 39 28 25 14 11 30 35 25 28 21 19 18 20 18 20 23 26 18 12 15 19 24 23 25 23 21 22 19 18 19 18 16 16 13 12
53 41 54 38 45 45 47 36 35 29 29 28 30 21 31 31 27 27 22 24 21 24 20 19 13 9 9 11 14 17 20 21 22 19 20 19 16 17 18 17 15 18 11 6
50 38 37 54 36 33 35 27 30 30 26 18 34 20 23 31 29 17 7 4 9 9 9 9 9 7 10 13 14 15 17 19 17 19 18 15 14 15 15 15 16 10 7 4
34 41 35 30 44 28 18 19 3 4 5 6 21 14 33 16 7 7 9 13 9 8 11 10 9 9 10 13 12 13 14 16 17 16 13 12 11 12 14 14 9 9 3 7
24 15 36 32 39 39 41 35 14 6 3 5 19 13 34 27 22 10 16 11 11 10 12 9 10 10 10 11 12 12 13 15 15 11 9 9 8 10 9 10 8 3 6 10
26 23 10 35 33 32 38 39 36 16 11 4 6 17 34 29 19 9 13 13 14 14 7 7 9 9 11 10 10 12 12 11 10 8 7 6 6 6 8 9 7 4 8 10
8 16 35 22 36 34 36 33 29 29 6 4 8 12 16 5 10 8 12 7 11 14 6 10 8 8 10 11 11 9 9 9 6 6 6 3 2 4 6 8 7 5 9 12
39 13 9 28 38 44 38 26 22 23 16 5 1 8 19 20 11 13 12 13 11 9 8 8 6 9 11 13 9 8 8 6 5 6 5 1 1 3 8 8 1 5 10 12
29 21 20 25 25 35 49 47 36 20 12 19 5 11 7 2 6 4 5 6 14 6 8 5 6 7 9 10 8 6 7 5 5 5 2 1 2 5 7 4 3 8 12 14
9 16 14 5 21 22 37 50 46 26 18 37 14 8 6 12 7 11 9 12 12 8 4 6 8 7 7 9 8 5 4 5 4 4 3 2 4 5 6 4 7 11 14 15
5 16 22 18 18 28 32 40 47 46 30 17 36 20 23 8 11 14 10 17 11 7 5 6 9 7 7 9 8 5 3 5 5 4 5 4 7 8 8 9 11 14 16 15
13 4 15 34 36 14 22 24 31 45 51 35 34 35 36 19 13 10 9 18 13 6 5 7 10 8 8 10 8 5 3 6 5 6 7 7 9 11 14 16 16 17 18 17
13 5 17 23 33 39 28 18 24 31 40 47 37 38 31 24 19 12 11 17 12 9 6 8 12 9 8 11 8 5 4 7 7 8 9 10 12 16 17 16 15 15 16 15
14 16 15 5 13 24 27 40 25 18 36 39 42 49 35 26 17 19 14 15 13 10 8 9 9 7 9 11 9 7 7 8 9 11 12 14 13 16 14 12 11 12 13 12
19 14 4 4 7 6 15 22 30 31 25 31 42 30 31 23 21 13 19 16 16 13 9 9 10 9 13 13 12 9 9 10 11 14 16 16 12 14 14 15 14 12 10 9
14 8 2 4 4 4 13 8 19 23 26 28 25 36 28 30 28 21 21 18 16 12 9 8 10 9 14 14 12 11 11 12 12 15 17 17 16 13 14 13 10 9 9 7
17 13 15 5 3 4 2 5 14 25 19 22 28 32 36 30 34 23 17 22 15 16 13 12 13 12 15 16 14 11 11 11 13 14 16 16 15 13 12 11 9 7 7 8
13 7 14 9 2 1 19 3 13 16 8 14 26 30 32 34 31 29 24 22 16 17 17 17 14 12 12 19 16 13 12 12 12 13 15 16 16 14 12 9 8 7 7 9
2 4 3 3 1 2 10 10 11 6 11 16 18 27 28 32 33 29 22 24 21 20 24 20 14 16 15 16 17 16 13 13 13 12 14 14 15 16 14 11 8 7 7 9
4 6 3 3 5 8 14 16 9 5 1 16 16 24 28 33 35 28 24 26 24 22 28 24 16 17 16 14 17 16 17 14 13 13 13 14 14 15 14 13 11 8 8 8
6 1 6 7 4 12 11 13 6 5 3 3 11 23 30 36 38 33 28 26 25 28 28 25 22 18 17 14 13 16 18 16 14 13 13 12 14 14 15 13 12 11 10 11
7 6 8 12 10 15 4 6 2 3 5 3 5 14 28 36 38 33 27 28 25 31 26 26 26 18 17 15 16 18 19 17 16 14 13 14 13 14 15 14 13 12 12 12
8 7 8 11 13 7 11 8 3 2 6 6 9 9 18 32 38 35 27 28 31 33 27 26 26 22 20 21 19 20 20 18 17 16 13 13 16 15 15 16 16 15 14 13

GFSCGP_700_spd_009.txt.gz
Wind_Speed
49 42 65 61 55 50 41 36 41 37 36 36 47 44 44 47 44 38 40 26 19 20 19 20 16 16 19 21 25 26 27 31 31 30 26 24 27 26 27 26 25 25 21 20
44 64 61 53 51 54 45 38 35 28 37 34 33 44 46 43 43 42 39 24 17 16 15 18 16 17 20 23 25 28 27 26 30 30 25 25 25 24 26 24 24 23 22 21
64 73 54 49 48 48 46 43 39 34 29 29 28 40 37 40 36 28 29 21 15 9 11 16 20 22 21 26 27 23 21 22 26 26 24 25 22 24 24 23 23 22 20 18
53 50 37 47 51 38 44 46 37 33 24 28 16 25 30 34 39 34 28 24 17 17 18 23 19 21 22 25 21 16 16 20 22 22 23 21 21 24 22 22 23 20 19 15
49 36 43 34 39 46 42 25 27 28 28 27 26 19 23 23 34 28 19 23 19 22 25 23 20 18 17 15 12 12 13 16 18 20 21 19 22 21 20 22 22 19 17 9
33 22 33 56 33 34 20 15 14 13 14 17 24 18 26 35 26 17 10 14 12 10 7 6 8 11 12 12 10 11 11 13 17 18 17 19 18 17 19 21 20 14 10 6
25 26 28 31 27 24 25 20 8 8 9 10 18 18 35 27 14 5 11 9 11 9 4 6 8 11 8 7 9 9 9 13 15 15 16 15 13 15 16 15 14 12 6 4
25 17 35 25 34 28 35 33 14 7 6 10 6 12 20 12 13 6 4 5 7 13 8 10 8 9 8 8 8 8 11 12 14 13 12 11 12 13 10 11 10 5 3 6
21 22 22 32 28 31 28 39 24 9 4 7 5 11 20 17 14 10 5 4 9 11 13 8 5 8 9 9 8 9 10 13 11 10 9 10 10 8 5 9 8 3 4 6
15 16 27 29 30 32 32 31 19 19 9 9 7 8 13 3 9 8 6 4 8 10 15 6 7 10 11 10 8 8 11 8 9 8 8 8 8 4 6 9 5 2 5 9
26 6 20 26 35 36 28 31 19 20 12 5 3 8 14 13 6 6 3 3 6 13 12 8 9 10 9 7 7 10 9 8 8 6 7 7 6 6 7 5 1 4 8 11
18 14 9 38 26 28 34 35 32 20 13 20 7 8 4 9 6 7 5 0 11 13 9 11 9 7 4 6 7 9 8 8 6 5 6 5 3 4 3 3 4 8 10 11
11 14 18 9 12 30 36 33 32 20 14 25 14 7 15 5 10 3 2 2 15 8 6 7 5 6 4 6 8 9 6 6 5 5 3 1 2 3 3 5 7 11 11 12
7 14 22 16 20 11 38 36 30 27 19 16 33 18 13 10 8 5 8 16 15 5 4 3 5 6 4 7 10 8 5 5 5 5 5 5 5 6 7 10 9 12 11 10
1 8 18 30 12 9 19 29 36 34 29 22 13 29 24 15 10 8 10 22 15 6 2 5 7 6 4 7 9 7 5 6 6 6 7 7 8 10 13 14 14 14 12 11
14 1 7 28 26 14 10 13 21 35 39 39 28 25 26 25 18 12 5 25 16 10 5 6 7 8 4 7 8 6 5 7 8 9 8 10 12 12 13 14 15 14 12 12
8 7 3 8 19 18 15 19 12 13 26 32 35 37 29 29 21 17 7 24 16 12 4 5 3 4 3 8 8 6 6 8 10 11 11 14 15 15 14 13 12 9 9 8
3 4 3 5 12 15 14 18 21 17 15 23 34 23 21 32 24 18 13 24 14 15 7 6 4 5 3 10 10 7 8 10 11 12 12 13 16 11 9 10 11 10 10 8
4 1 3 4 9 7 16 16 19 19 22 25 20 24 31 21 21 17 17 21 14 12 10 4 3 4 3 10 10 8 10 12 13 14 12 11 13 11 13 11 8 8 7 7
12 7 9 4 5 6 3 9 20 22 17 15 24 26 25 29 24 19 22 22 19 18 15 8 6 7 7 12 12 10 10 13 14 16 14 12 11 12 11 8 6 6 7 9
5 7 20 6 2 2 5 9 15 15 8 12 20 25 22 28 28 20 25 26 21 20 21 14 6 2 6 13 13 12 11 13 14 17 18 15 12 12 10 7 5 6 8 9
2 3 8 5 4 5 8 15 10 8 10 12 17 22 25 28 29 24 28 27 26 20 23 20 10 5 9 12 17 14 13 14 14 15 17 17 15 12 10 8 6 6 8 9
2 5 3 3 7 14 17 17 15 6 4 15 16 18 24 26 28 30 25 26 25 22 25 25 14 8 10 11 19 16 16 14 14 14 14 15 17 16 13 10 8 8 8 9
7 7 7 8 16 15 10 11 10 7 3 6 17 18 20 26 28 29 26 24 26 24 21 28 22 14 8 12 12 19 17 14 15 15 14 14 14 14 14 14 13 12 11 10
9 8 8 11 20 15 8 7 9 7 6 7 12 15 19 21 26 30 29 27 28 26 25 30 26 21 12 14 13 19 20 17 15 16 17 16 15 15 14 14 14 15 14 14
7 8 9 5 10 9 8 6 6 7 9 9 12 12 14 21 24 31 33 31 29 23 27 28 33 26 18 16 17 16 19 19 18 16 16 17 16 16 15 15 16 17 18 18

GFSCGP_700_spd_015.txt.gz
Wind_Speed
32 39 47 63 55 50 46 39 45 46 39 34 41 46 41 36 35 38 41 41 43 41 33 33 27 30 27 29 29 24 24 25 27 32 34 30 28 29 31 31 31 29 31 31
38 51 71 41 43 42 45 44 48 42 38 36 38 42 40 39 41 42 41 42 39 38 35 27 24 29 29 31 26 21 23 25 29 32 28 26 25 29 28 30 31 30 31 26
48 66 39 44 44 43 47 47 42 41 34 32 34 43 44 42 41 39 39 39 37 35 33 27 21 27 24 22 24 24 26 26 25 25 24 21 22 25 25 27 29 31 23 25
43 49 48 43 48 50 51 42 37 34 32 32 30 35 41 34 36 34 34 33 32 29 26 22 21 23 19 22 22 23 23 25 27 20 19 17 19 21 23 23 23 25 24 23
47 44 51 49 57 44 56 35 34 33 32 33 34 32 34 30 33 32 30 29 29 29 26 21 25 22 20 23 23 21 22 22 17 15 13 14 16 21 21 25 22 19 20 18
43 36 39 55 48 37 39 35 33 31 31 28 33 32 40 36 30 28 27 24 22 20 18 21 26 21 21 19 18 16 17 12 12 12 12 14 16 18 22 17 18 18 16 14
41 42 38 33 47 45 37 37 22 21 23 22 27 31 41 26 23 20 20 14 11 16 24 22 18 15 11 11 11 12 13 13 12 11 12 15 18 17 15 14 15 15 11 7
39 38 43 43 40 57 46 46 30 28 12 17 29 25 27 20 13 11 12 14 11 17 20 17 15 14 13 11 10 11 12 12 11 11 13 16 13 13 11 10 11 15 6 2
27 42 37 46 36 37 58 49 52 33 27 20 20 23 21 18 16 14 8 17 12 15 17 17 15 13 9 11 11 11 11 10 10 11 13 12 9 9 10 10 13 8 3 2
18 31 43 37 42 38 52 52 38 45 24 15 18 13 13 4 7 13 13 15 17 18 20 20 15 11 11 11 11 9 9 8 9 10 11 8 8 6 9 11 10 4 2 4
17 11 26 44 51 44 49 43 50 38 32 15 11 12 10 11 5 15 14 13 16 18 21 20 16 13 10 9 9 8 9 7 8 9 6 5 6 7 9 8 5 4 4 7
18 15 22 41 40 43 48 42 49 32 29 30 19 5 4 13 7 8 4 13 17 20 17 17 12 11 7 9 8 8 7 6 6 6 4 2 5 5 4 4 3 5 7 9
14 20 23 12 31 41 48 50 42 42 30 29 11 5 9 8 9 8 10 13 18 19 19 14 14 8 9 6 6 8 5 4 4 3 2 3 2 2 3 4 5 7 8 9
13 25 24 7 23 38 40 47 43 44 33 29 31 12 15 14 10 7 10 14 18 21 12 12 10 10 8 3 6 7 4 3 3 3 2 2 1 2 2 3 6 8 7 7
9 29 36 16 13 23 37 42 37 47 33 25 25 20 18 16 7 7 7 16 20 18 15 13 11 8 6 3 6 6 3 2 3 4 5 3 3 2 3 4 8 8 7 7
11 18 27 29 23 18 36 40 40 35 35 26 16 25 20 11 7 7 5 15 17 16 17 14 11 8 5 3 6 6 3 1 3 4 5 5 5 5 7 8 8 7 7 6
14 7 14 28 26 19 20 30 40 36 35 25 20 15 16 14 9 7 6 9 13 15 16 15 14 9 5 3 6 5 3 3 5 6 7 8 7 7 9 10 10 9 7 5
15 15 11 7 16 10 17 16 36 31 29 26 21 12 7 8 7 8 3 5 12 14 16 17 15 11 7 4 5 5 3 4 7 9 9 11 9 8 8 6 6 6 5 4
14 11 5 6 16 14 10 13 13 33 11 10 11 12 7 9 17 6 14 11 18 14 17 16 15 10 8 3 5 4 4 6 10 10 11 13 9 6 5 6 5 6 6 4
11 9 6 14 11 7 8 5 17 14 13 3 7 5 10 17 6 16 13 10 18 21 18 17 14 9 8 6 7 4 4 7 11 11 12 13 9 7 6 5 5 5 6 7
9 7 14 16 9 5 6 4 18 15 5 5 7 5 18 11 15 16 16 12 18 27 19 19 14 9 9 7 9 6 5 8 11 12 13 12 10 9 6 4 4 7 10 10
7 4 13 8 3 5 2 2 8 9 5 4 5 4 8 12 13 18 17 15 15 24 28 21 17 11 9 8 11 9 7 8 11 12 12 12 10 9 6 4 6 8 9 9
2 1 3 1 8 13 16 15 17 10 5 5 5 1 3 4 3 10 19 17 12 23 31 24 19 13 11 9 12 12 11 9 10 12 11 11 9 9 7 7 6 8 9 9
6 4 7 9 13 11 12 10 10 6 4 2 7 4 1 2 4 5 12 18 15 20 30 28 23 14 11 10 12 14 13 11 10 10 11 11 9 8 8 8 7 8 9 8
13 12 8 8 14 13 9 12 1 4 6 4 4 5 4 3 3 2 9 12 16 20 26 30 27 19 12 11 12 17 15 14 12 11 10 10 10 10 9 9 9 9 9 10
16 13 12 6 5 8 5 8 3 5 6 7 5 2 3 5 2 2 9 15 18 20 22 32 30 24 17 13 12 12 18 17 16 14 12 11 10 10 10 12 11 12 12 11

GFSCGP_700_spd_021.txt.gz
Wind_Speed
28 29 48 67 57 48 34 32 41 45 42 39 49 48 47 46 39 40 41 43 41 41 40 38 35 35 36 30 33 32 35 32 33 29 29 33 36 38 39 34 35 37 26 24
18 44 58 45 47 42 39 39 43 35 32 30 42 42 43 44 42 40 37 39 37 34 29 33 33 34 40 44 36 33 29 31 32 29 30 32 32 33 30 28 29 21 21 24
28 41 34 40 34 32 42 48 47 39 25 34 37 40 42 44 45 41 41 38 40 43 42 43 45 38 29 30 39 38 28 31 33 32 30 30 31 31 28 24 15 14 21 22
30 32 34 31 39 36 44 35 39 33 27 37 31 28 44 45 44 39 38 34 35 35 35 36 31 30 25 26 21 25 28 29 30 23 25 27 28 23 19 15 15 17 20 21
42 19 24 31 37 33 46 32 33 27 38 39 39 28 49 30 33 34 34 30 30 32 34 35 31 27 29 19 19 20 23 22 19 21 20 19 18 18 16 13 16 18 19 18
35 32 27 30 27 32 31 31 32 34 36 19 40 34 56 40 39 35 33 30 29 31 24 23 26 25 23 21 22 22 20 20 20 15 13 13 16 14 12 14 16 17 16 16
24 25 25 31 31 27 31 33 12 15 15 18 33 27 40 37 35 34 29 23 29 28 22 18 20 19 21 21 19 18 19 16 14 10 12 13 11 9 13 15 16 14 12 15
22 17 25 18 30 29 28 35 19 13 12 19 30 14 31 36 33 35 32 21 23 17 13 16 19 14 15 14 17 16 11 11 7 10 10 7 8 14 15 14 13 11 12 10
8 15 16 19 17 29 35 36 45 35 23 16 18 35 38 32 28 21 19 22 24 18 11 11 16 15 14 15 14 9 8 6 7 8 7 9 12 13 12 11 9 10 8 4
7 18 22 26 22 27 37 35 22 34 13 13 12 26 31 30 19 20 19 20 20 19 16 13 18 17 14 13 8 7 7 7 6 9 10 11 13 11 10 8 8 8 4 2
8 13 29 25 15 17 25 40 34 26 27 11 6 19 29 34 22 12 26 24 20 17 13 11 13 14 14 8 5 5 7 7 7 9 10 11 9 5 6 6 5 5 3 4
14 13 23 21 29 26 26 29 36 24 30 30 20 21 6 8 11 17 23 24 20 18 12 13 15 14 10 6 5 6 9 7 7 8 9 7 4 4 5 3 2 5 4 4
11 6 11 13 18 23 22 26 34 28 26 38 16 28 24 10 12 13 23 27 24 19 14 12 15 12 8 5 5 7 7 5 7 7 3 2 3 3 2 2 2 6 6 5
10 12 14 15 14 16 20 15 20 26 31 26 33 40 35 24 19 16 17 29 21 15 12 11 12 10 8 5 5 7 5 6 5 5 1 2 2 2 3 2 5 9 8 6
7 15 14 16 22 21 28 25 19 19 21 30 37 22 24 19 20 20 22 19 17 16 17 13 10 8 5 5 5 7 6 3 3 6 4 1 4 3 3 4 10 10 9 6
11 11 19 26 12 13 25 30 24 23 29 28 39 35 29 21 19 20 19 18 20 22 17 12 9 7 6 2 5 6 4 4 5 7 5 3 1 2 5 10 10 10 9 7
20 23 16 9 8 6 14 28 24 28 30 31 37 42 20 20 19 25 22 18 20 20 15 11 9 6 5 2 4 5 4 3 6 10 4 2 5 6 7 9 8 8 8 7
19 17 17 10 5 5 13 6 27 22 15 32 35 29 31 34 26 29 25 23 17 9 12 10 7 5 4 3 5 5 4 4 7 9 5 5 6 6 8 10 10 9 8 8
13 17 11 5 6 18 10 4 3 6 8 19 35 35 21 36 39 35 34 33 29 19 7 4 4 3 3 4 5 5 5 7 8 11 5 5 4 5 8 9 8 9 9 6
20 17 15 7 6 6 14 10 10 13 16 14 25 32 28 17 38 34 32 32 30 25 20 13 5 3 5 6 6 6 6 10 10 11 2 6 3 4 6 6 6 6 7 7
4 10 14 7 4 7 26 9 16 12 8 16 23 30 26 16 23 25 25 25 31 26 20 16 7 2 3 6 7 7 7 10 12 7 4 5 3 5 6 5 5 5 7 6
8 7 3 4 2 3 19 24 21 15 20 17 19 20 21 20 18 17 18 23 25 25 21 15 10 4 5 5 8 7 8 11 14 7 4 4 5 5 6 6 8 10 10 9
8 9 6 4 8 11 12 26 20 18 23 23 23 23 17 15 15 13 16 18 30 26 25 16 10 6 6 7 8 7 9 11 15 10 9 5 5 6 7 7 8 9 9 10
13 10 9 8 14 13 18 19 20 17 31 26 21 20 17 17 15 16 15 19 31 30 25 19 13 8 8 7 8 9 9 10 13 10 8 5 5 8 8 7 6 6 7 9
18 16 11 16 10 12 12 13 25 23 17 24 23 17 17 18 18 17 18 19 23 24 24 20 17 11 7 9 9 11 11 11 11 9 10 8 7 8 7 7 6 6 5 10
18 14 13 11 14 12 14 10 5 12 13 15 16 15 14 13 21 22 23 23 24 27 29 23 21 16 12 8 11 10 12 11 10 8 9 11 7 9 9 6 5 4 8 9

GFSCGP_700_spd_024.txt.gz
Wind_Speed
36 41 53 61 51 44 23 30 37 32 27 32 48 54 51 44 45 45 45 41 39 39 39 36 38 33 34 37 34 37 34 36 29 28 29 28 29 29 32 35 36 28 31 31
21 49 51 47 33 39 41 43 35 24 15 21 29 41 42 42 42 40 39 39 42 38 35 33 33 29 29 34 34 38 40 36 37 31 28 28 28 29 31 33 36 30 25 25
24 15 35 38 29 34 37 42 41 29 27 27 24 43 33 46 44 44 42 40 38 40 42 37 36 37 36 32 32 29 28 29 32 30 26 29 31 33 33 32 31 22 17 16
29 31 29 24 25 35 36 34 23 30 33 31 29 34 47 50 51 49 48 44 43 46 39 33 33 29 30 32 32 28 26 21 20 24 26 30 30 28 26 26 19 16 13 16
32 7 13 23 28 21 36 25 26 25 25 30 36 24 65 33 43 46 45 46 45 38 32 27 29 30 34 33 28 23 17 16 17 22 23 22 22 22 21 15 14 13 15 16
28 22 20 19 19 19 14 21 26 27 26 17 34 27 32 38 44 40 35 31 29 25 24 28 29 23 27 28 26 25 18 18 20 19 19 18 18 17 11 11 14 15 14 15
20 21 22 20 22 22 20 14 6 7 10 17 19 25 48 10 6 18 22 23 20 21 23 19 19 20 18 22 22 18 16 17 18 16 16 17 13 9 11 12 13 13 14 14
12 11 18 14 10 18 24 19 12 7 4 5 34 16 20 28 31 29 27 21 21 22 21 16 17 14 13 13 16 17 16 15 12 14 12 9 9 11 13 12 12 13 12 13
5 7 10 12 13 12 18 29 25 21 29 4 15 24 35 44 36 30 25 26 22 25 18 13 8 12 9 10 13 14 12 11 11 9 8 10 11 13 11 12 12 11 11 10
3 8 19 21 18 20 19 14 15 19 7 6 8 15 22 18 16 15 17 20 22 21 19 15 12 13 12 13 13 12 10 9 8 7 9 12 13 11 11 12 11 11 8 9
15 11 16 17 14 20 18 16 21 15 11 8 3 8 26 24 19 19 16 22 20 20 15 11 10 15 14 13 13 9 7 9 8 9 10 10 11 9 11 11 9 6 7 8
11 9 12 22 21 20 20 19 13 8 12 18 17 27 27 25 21 18 19 21 21 14 10 10 11 13 14 15 11 7 8 8 8 9 9 10 8 8 8 6 4 6 10 9
10 4 8 11 8 9 12 13 15 18 20 31 13 17 23 20 11 13 22 24 21 15 15 12 14 15 15 13 9 7 8 8 8 8 9 6 5 6 5 4 4 9 10 8
13 11 11 12 11 15 13 12 9 14 16 28 37 32 33 16 3 11 18 23 24 19 18 12 15 17 15 11 8 8 8 8 8 7 6 6 7 6 5 4 7 11 9 7
13 17 15 17 21 15 19 22 16 16 24 15 23 38 39 28 27 23 23 27 28 24 17 14 16 15 13 9 9 8 8 7 6 6 4 4 3 6 6 6 10 12 9 8
18 15 18 30 26 17 19 21 22 22 24 22 25 35 25 28 24 30 31 27 30 23 17 19 14 12 9 8 8 9 8 5 5 10 5 1 1 2 4 8 12 10 9 9
24 22 18 21 14 9 10 16 17 20 18 11 32 31 9 13 20 34 30 28 23 19 23 17 13 11 9 6 9 8 6 6 10 11 7 4 4 3 5 9 10 10 8 8
25 21 20 18 26 5 3 8 15 16 14 14 28 33 21 18 14 30 30 19 17 24 20 16 12 10 9 6 8 7 7 8 9 11 8 6 5 5 6 8 9 8 8 8
18 21 15 7 7 11 3 4 13 22 19 13 24 27 25 21 28 22 27 20 19 22 17 14 11 8 7 5 5 5 7 9 8 12 10 5 3 3 5 8 9 10 9 9
16 19 23 11 5 3 9 7 17 22 18 15 21 27 25 25 33 26 32 27 23 23 19 15 10 7 7 5 4 4 7 9 11 14 8 4 2 2 4 6 8 7 8 8
7 13 26 24 7 9 15 13 14 14 13 17 19 25 24 26 25 31 30 30 26 21 19 15 9 5 7 4 4 4 7 9 13 14 9 5 5 5 5 6 6 7 6 7
7 5 8 9 3 3 16 20 17 11 20 22 18 20 24 28 23 30 34 31 28 25 20 15 10 5 7 5 4 4 9 11 15 14 9 7 6 6 7 7 7 10 8 6
8 12 3 3 3 13 22 29 23 26 31 23 28 26 35 22 23 25 30 34 28 26 22 16 11 7 8 5 6 4 9 12 15 16 12 9 6 6 7 8 8 7 5 7
15 14 9 4 10 14 19 22 24 23 27 27 25 28 34 33 22 21 23 30 31 25 23 19 14 8 9 7 5 6 6 10 13 15 13 10 8 7 7 7 8 6 4 4
17 17 19 18 15 10 5 18 10 21 26 27 19 25 29 27 26 21 17 21 32 27 25 22 17 10 7 7 5 7 7 7 13 13 13 11 9 7 6 6 7 5 8 8
17 13 14 12 15 14 11 5 14 17 28 22 10 18 23 21 22 21 19 20 31 31 27 24 18 15 10 5 7 6 8 7 11 13 12 11 10 8 6 6 7 5 7 11

GFSCGP_700_spd_027.txt.gz
Wind_Speed
31 39 49 52 50 43 20 20 22 19 16 27 43 53 51 46 47 50 52 54 52 48 39 34 29 27 32 33 32 31 32 34 34 36 36 36 35 30 24 24 22 25 25 25
27 45 45 38 30 35 38 31 23 21 20 17 26 42 39 35 39 45 47 48 44 40 35 32 28 28 27 25 25 23 28 33 31 34 33 33 31 25 26 24 26 23 21 30
16 14 46 35 29 24 23 29 34 28 21 25 26 41 37 37 37 37 38 41 39 38 35 29 28 31 35 35 33 29 27 28 31 30 30 31 27 26 27 26 23 20 25 28
19 20 24 17 36 34 34 24 21 14 21 25 33 25 47 48 50 46 44 42 40 38 37 35 34 35 29 30 29 28 27 28 28 26 26 29 25 26 26 24 20 20 23 17
28 13 11 28 23 27 27 24 28 23 23 20 25 16 75 35 41 43 43 43 39 36 38 38 37 33 29 26 25 29 27 25 24 24 21 21 23 23 21 20 17 14 14 16
31 22 17 14 12 18 15 14 16 24 20 13 32 23 63 38 44 38 32 27 26 23 21 20 24 22 24 27 23 29 23 23 22 21 19 19 17 18 18 14 12 12 15 17
12 24 22 19 19 15 18 11 5 6 8 13 8 26 55 15 11 19 8 7 9 12 14 15 14 15 18 19 19 16 18 19 21 16 17 15 15 13 13 13 12 15 16 15
2 8 17 13 18 16 18 22 8 6 7 7 26 20 27 29 26 32 33 19 14 10 10 10 10 12 15 13 12 15 15 17 16 14 12 11 12 12 13 12 15 14 13 14
3 11 9 9 12 8 7 21 22 12 19 5 18 33 42 16 17 11 13 23 15 17 12 12 9 8 8 8 8 11 15 15 13 11 11 12 12 12 14 15 12 13 11 12
1 6 7 10 13 15 12 9 16 14 4 5 9 23 28 8 30 19 11 16 12 14 15 13 13 10 9 11 10 10 13 12 11 10 11 11 12 12 12 11 11 11 11 12
7 6 7 11 9 11 13 14 14 16 24 4 3 11 11 13 20 22 17 12 15 16 14 12 14 11 14 12 11 11 11 9 10 11 12 11 10 11 11 11 10 10 11 11
2 4 9 18 18 14 12 17 15 14 17 27 15 14 14 13 9 13 19 11 16 14 12 13 10 11 13 12 11 12 10 10 11 12 11 10 10 12 9 9 9 10 12 9
7 4 7 11 1 3 11 21 28 25 22 23 8 10 8 16 21 11 18 10 14 12 12 12 10 11 12 14 15 11 11 11 11 10 9 10 10 9 8 9 9 9 8 7
14 10 12 9 14 14 17 13 20 23 17 22 42 28 37 19 16 14 20 15 18 13 15 12 10 12 15 16 13 11 10 10 9 8 9 10 9 10 9 9 8 8 7 9
11 14 13 19 16 19 21 22 22 23 25 15 29 34 42 28 24 20 22 22 26 22 18 14 12 16 17 15 13 12 10 8 8 8 10 9 8 8 8 8 7 9 9 9
19 15 13 19 22 16 25 28 29 29 26 26 25 43 41 25 24 26 19 17 29 28 19 12 14 16 14 12 11 10 9 8 8 10 7 3 3 4 7 8 7 9 9 9
18 16 12 17 17 21 17 29 34 35 29 23 24 41 39 18 11 21 12 17 28 27 17 15 16 14 11 9 9 9 8 8 10 10 7 4 2 1 4 7 9 9 9 9
26 20 13 19 20 6 7 13 24 29 26 20 18 28 40 27 20 18 18 18 26 23 15 19 16 13 11 9 10 9 8 9 10 11 8 5 3 3 4 7 8 8 8 8
18 20 15 7 11 22 15 8 8 13 21 19 24 30 34 31 24 19 14 21 28 18 20 15 12 10 9 9 10 8 8 10 10 13 9 6 4 3 4 6 8 8 8 8
17 18 22 10 5 4 0 6 7 13 17 19 26 26 28 28 26 23 17 30 27 22 18 18 13 9 9 10 9 7 9 9 11 14 9 6 4 4 3 5 7 8 7 7
5 18 27 25 10 11 16 13 7 13 10 17 23 27 26 25 25 23 18 27 25 24 21 19 13 8 9 9 8 8 9 9 13 13 8 5 4 6 6 7 7 7 8 8
4 4 8 15 10 6 10 8 13 19 10 12 26 22 28 26 25 17 18 23 23 26 24 18 14 11 8 8 7 8 10 10 14 13 10 7 6 7 7 6 6 5 6 6
4 11 3 2 2 9 14 16 18 19 11 20 31 29 24 20 23 22 29 25 27 25 22 19 14 11 8 7 7 7 10 10 16 15 12 9 8 9 9 9 8 6 4 4
20 20 8 4 11 11 18 15 24 22 19 25 35 31 22 21 23 27 28 21 22 23 22 19 15 13 10 7 8 8 9 12 13 14 12 9 10 9 7 7 6 6 5 4
21 17 14 18 18 12 19 25 23 23 22 30 35 32 25 22 21 21 26 32 30 25 24 20 16 13 11 8 7 7 8 11 13 12 11 9 9 8 5 4 5 7 6 5
18 15 17 15 17 20 21 19 23 19 13 25 28 30 29 31 18 20 21 28 32 28 24 25 20 15 11 9 8 8 7 9 12 12 11 8 8 7 6 4 2 3 4 7

GFSCGP_700_spd_030.txt.gz
Wind_Speed
20 30 44 46 49 41 13 20 17 24 17 20 33 44 45 44 45 47 47 48 49 52 51 49 45 44 43 29 26 28 28 26 27 28 30 31 29 29 29 26 23 23 24 21
16 31 37 35 30 39 32 20 16 17 21 20 29 36 42 41 47 49 47 46 44 43 43 44 44 39 30 26 25 23 21 22 25 23 28 25 26 28 26 25 27 25 23 22
18 18 23 31 26 22 26 34 30 24 15 21 27 43 45 46 48 48 47 45 43 41 37 35 35 32 26 28 26 28 30 28 26 24 25 24 26 25 27 28 25 22 20 20
20 18 20 15 28 30 24 18 11 11 15 25 18 14 37 42 46 45 43 39 38 34 31 27 28 30 27 27 26 23 28 27 24 24 27 26 21 22 23 25 24 24 18 20
24 23 18 16 19 19 27 32 25 17 16 20 29 18 50 25 37 38 42 41 40 37 35 31 29 30 33 31 28 28 23 23 22 25 23 21 20 21 23 26 24 18 19 23
30 31 26 18 10 15 16 18 19 14 19 15 26 16 52 43 46 39 34 33 28 22 20 21 22 21 21 25 24 25 24 25 25 22 18 17 20 20 18 16 18 16 17 18
12 24 26 27 22 17 14 16 5 4 5 13 16 20 54 3 9 5 3 5 3 7 14 18 16 17 17 19 20 20 22 26 19 17 17 19 20 16 16 17 16 13 14 16
7 5 19 18 21 16 14 23 8 6 6 6 19 19 23 19 39 39 31 21 17 10 9 16 17 15 16 13 17 17 15 14 13 14 15 18 14 14 12 12 12 13 15 16
4 3 4 15 12 15 11 22 27 4 4 3 12 31 36 9 15 13 8 12 8 7 13 20 18 14 11 12 12 12 11 11 11 12 15 14 14 11 11 11 13 15 15 14
4 6 3 5 7 10 8 10 14 11 4 5 9 19 19 13 28 19 11 10 14 12 14 20 17 12 10 12 9 9 10 10 11 12 13 12 11 12 13 13 14 14 13 10
6 8 10 9 9 11 13 20 11 15 21 4 2 5 2 4 11 17 13 11 13 12 14 17 13 15 12 13 11 9 9 10 10 11 11 12 13 12 12 12 13 12 10 9
7 6 9 15 13 12 11 12 16 17 15 23 12 11 5 8 6 7 7 10 4 11 12 10 12 14 13 14 11 9 9 10 11 11 11 11 10 10 11 12 11 10 9 7
8 5 6 4 3 7 14 20 20 22 17 19 5 11 10 10 4 5 9 14 8 14 12 12 12 11 14 13 11 11 12 11 9 10 10 9 9 9 9 9 8 7 6 6
14 13 14 9 7 11 14 14 14 13 15 21 28 26 44 29 22 15 18 15 2 17 15 14 10 11 12 12 13 14 10 9 10 9 8 9 8 7 8 7 7 6 6 7
17 17 16 17 17 16 17 23 22 25 27 19 21 22 44 44 39 26 21 19 8 19 19 16 11 9 12 14 16 13 10 9 9 9 8 7 7 8 8 7 7 6 7 7
15 18 17 18 19 16 22 26 28 33 38 40 31 31 35 38 33 27 17 17 9 20 21 17 14 11 14 14 12 10 9 9 9 7 6 6 6 7 7 6 6 8 8 6
20 14 9 11 10 11 21 27 31 40 42 41 36 31 33 39 35 20 18 18 7 20 20 16 12 13 13 12 9 9 9 9 8 6 9 8 5 2 1 4 7 9 7 5
17 17 14 11 14 4 14 12 18 25 39 38 36 32 24 26 31 29 22 18 6 18 19 15 15 16 13 10 10 10 9 9 8 7 10 8 5 3 3 5 8 8 6 6
18 21 11 6 9 21 28 18 10 10 24 34 30 25 24 19 27 28 22 12 9 21 17 14 16 14 10 7 9 9 8 9 7 13 10 7 5 4 4 5 7 7 6 6
13 21 21 11 5 4 11 5 4 14 20 16 25 24 21 20 26 23 16 10 7 23 17 18 16 14 9 10 10 8 9 9 11 13 10 7 4 4 6 6 8 7 6 6
2 19 29 24 10 10 17 19 18 11 8 18 27 24 24 21 19 15 15 7 9 22 23 21 15 11 9 11 9 9 10 11 16 13 9 5 5 6 7 7 7 6 5 5
4 5 10 14 8 8 15 9 11 10 14 16 23 22 22 19 15 14 11 12 15 26 26 22 15 13 12 12 10 12 12 12 15 12 8 8 6 7 7 7 6 5 5 5
8 11 5 5 6 12 15 16 3 14 19 15 18 18 17 18 13 17 15 11 39 24 24 23 17 12 12 12 11 12 11 11 15 13 10 8 6 6 7 8 8 7 5 3
23 21 15 12 28 17 22 19 15 12 23 14 16 20 21 22 17 17 16 19 35 27 22 22 19 13 9 11 11 12 10 10 15 15 11 9 8 6 6 7 6 6 5 4
20 22 22 24 28 24 25 23 13 14 14 23 20 20 21 22 20 20 22 28 25 17 24 21 18 14 11 7 10 12 11 11 14 13 12 10 8 7 6 5 4 4 2 2
18 20 23 20 25 22 26 18 16 19 14 20 27 26 22 19 19 22 25 23 23 18 22 22 20 19 14 9 6 10 11 11 12 11 11 9 7 6 5 4 3 2 3 2

GFSCGP_700_spd_033.txt.gz
Wind_Speed
22 23 33 31 30 32 27 10 32 27 22 28 38 49 48 49 51 53 55 54 53 55 55 56 53 51 53 52 45 41 37 29 27 26 30 29 26 27 29 27 28 28 26 30
20 25 25 20 21 27 30 28 15 14 23 26 25 37 38 44 54 58 59 57 52 51 49 48 47 44 45 47 45 41 32 28 24 25 21 23 24 27 24 25 26 28 28 28
23 26 17 19 25 26 26 32 33 17 16 20 19 35 39 45 46 47 49 50 49 49 48 44 38 36 36 37 37 33 32 29 28 26 27 25 25 24 23 24 27 28 27 28
22 26 23 21 17 25 28 17 18 27 24 24 12 17 23 26 44 52 52 48 46 45 44 39 32 27 26 28 31 31 30 31 24 29 31 25 23 23 22 25 25 25 27 28
26 21 17 21 18 13 26 24 16 11 15 19 29 21 41 25 40 45 43 43 41 38 36 33 34 32 26 26 32 32 31 25 22 20 22 24 24 23 24 22 23 27 28 27
33 29 26 25 17 13 14 19 24 23 19 19 28 17 45 35 40 42 38 32 30 31 30 28 29 31 29 29 31 32 27 29 24 23 24 25 21 20 20 21 23 24 21 23
18 19 27 29 23 18 12 16 12 14 17 19 11 19 43 5 2 13 14 10 11 4 12 21 26 26 24 23 22 23 25 24 25 26 26 22 20 20 20 21 22 16 17 19
6 6 9 18 29 25 21 22 14 16 14 21 20 16 18 18 24 16 17 8 11 15 14 18 20 18 18 17 17 18 18 18 20 20 18 18 18 19 18 19 15 19 18 15
10 4 6 8 17 22 21 19 27 7 7 15 19 29 32 16 6 5 7 12 13 13 15 15 15 21 18 17 15 14 15 15 14 14 15 15 17 15 16 16 15 12 13 14
10 9 6 4 6 11 16 16 19 18 6 8 11 25 16 6 20 16 11 13 13 16 17 19 19 19 16 13 13 13 14 17 14 13 13 13 13 14 14 12 12 14 13 12
15 7 6 9 6 10 7 12 14 17 17 3 3 3 9 9 11 7 2 6 12 11 13 18 20 19 15 13 14 12 13 14 13 11 10 12 11 12 13 13 13 12 11 9
15 8 11 13 12 14 11 7 12 14 22 19 14 6 9 16 15 10 5 5 4 11 16 20 19 18 16 15 15 14 12 12 11 10 10 10 12 12 11 12 12 10 7 6
14 5 10 10 4 4 8 11 9 10 14 17 15 10 14 12 2 6 10 15 12 12 21 18 18 16 15 15 15 13 13 13 10 9 10 11 11 10 12 11 8 6 6 6
13 14 15 13 11 12 13 12 13 11 16 22 27 34 32 22 22 7 12 16 18 5 18 21 17 15 16 17 15 14 15 12 9 10 11 10 9 10 8 7 6 5 5 7
20 20 18 20 22 20 22 24 19 19 22 20 23 38 35 29 32 31 12 16 17 11 15 19 16 16 18 17 15 17 14 10 10 10 9 8 6 7 6 6 4 5 8 7
18 27 15 16 20 22 26 27 27 26 25 28 30 43 39 45 38 35 22 19 15 16 15 20 17 15 15 16 17 15 12 10 9 7 6 5 7 7 6 6 5 7 9 7
26 18 11 18 11 11 19 29 31 29 26 25 33 41 36 33 35 36 27 18 14 13 18 20 13 12 14 17 16 13 11 8 7 5 8 10 7 5 5 7 8 10 9 7
24 18 14 8 5 7 11 12 11 18 22 25 30 38 34 28 26 29 25 20 12 9 21 18 12 14 18 17 15 14 10 8 7 9 12 9 6 4 6 9 11 10 8 8
16 19 5 6 10 17 21 11 8 11 23 14 19 28 27 23 20 22 17 14 11 9 24 17 11 17 18 15 13 12 11 9 10 14 11 9 6 6 8 9 10 9 7 8
14 16 20 9 6 5 4 10 14 17 24 11 13 20 19 19 24 9 9 5 5 20 23 17 18 19 16 12 13 13 12 13 15 14 10 7 6 6 8 9 9 9 8 8
1 17 26 21 9 11 19 21 25 9 4 10 15 20 25 21 12 7 5 0 3 27 22 22 19 15 12 14 15 14 16 16 17 13 9 6 6 7 10 10 10 9 8 8
7 7 5 14 10 8 17 23 12 16 17 11 17 19 21 15 13 11 7 6 2 27 24 23 20 15 15 15 15 18 18 20 17 13 9 8 8 9 9 9 9 8 7 7
7 17 7 6 9 20 23 19 15 19 14 12 9 15 20 16 16 14 13 11 15 27 26 22 19 17 16 15 17 18 18 20 16 13 12 10 9 10 9 9 9 9 8 7
21 16 15 16 24 20 30 18 17 5 9 10 8 14 14 16 17 16 14 15 19 27 26 23 22 19 16 15 18 17 17 19 16 13 10 10 10 9 9 8 7 6 5 4
23 20 20 17 23 25 28 23 22 13 8 12 10 13 15 23 18 16 16 17 30 27 24 21 19 18 14 12 15 17 17 18 17 14 11 10 8 7 7 6 4 5 4 2
20 25 24 21 25 22 27 22 17 13 9 17 12 15 15 21 20 18 24 29 29 30 28 21 20 20 15 9 10 15 17 18 16 13 13 10 8 7 6 6 6 5 3 3

GFSCGP_700_spd_036.txt.gz
Wind_Speed
15 17 19 20 25 34 35 36 33 35 33 36 39 52 49 42 45 42 36 38 38 42 60 61 63 56 50 52 53 50 48 45 40 38 33 31 32 33 32 30 27 27 28 31
16 23 19 19 22 26 32 37 42 30 17 32 39 49 43 39 44 43 45 46 44 47 60 59 55 56 53 50 45 45 45 46 43 36 31 30 31 27 26 26 26 29 29 29
19 19 14 16 18 23 30 34 37 38 28 23 30 40 40 39 38 40 42 42 47 58 61 62 60 59 54 47 41 40 37 36 35 33 33 33 32 29 27 28 27 27 28 30
20 15 17 21 23 22 28 31 33 33 34 41 27 28 34 36 41 43 41 38 42 47 50 53 54 51 47 43 41 41 34 33 34 34 35 34 30 31 28 26 27 29 30 31
28 22 21 23 24 23 28 23 32 32 33 40 43 35 35 29 34 30 30 34 38 45 45 43 42 41 39 36 35 32 31 32 35 32 30 29 34 31 28 28 27 28 27 28
24 19 23 27 24 19 21 19 25 29 24 24 36 37 36 37 39 32 25 29 31 28 31 34 34 34 34 35 35 32 31 33 34 30 30 28 27 28 28 26 25 25 24 25
19 17 17 20 24 23 20 22 15 20 24 20 31 31 32 9 7 13 16 18 15 17 27 23 29 30 28 32 32 30 29 30 30 30 32 27 27 28 27 24 24 24 23 21
10 11 11 6 21 26 29 26 26 20 17 22 41 32 30 21 24 21 13 15 16 14 16 16 23 27 28 22 22 24 27 30 32 31 31 30 28 27 24 25 24 24 19 21
14 9 15 7 9 19 28 31 28 34 28 23 30 37 39 21 11 7 6 6 8 13 18 19 19 17 17 19 20 20 19 20 22 24 26 25 21 21 22 22 21 19 19 16
14 15 11 11 7 13 15 24 8 30 13 20 22 29 26 27 33 12 9 6 9 21 21 17 16 20 22 19 17 16 17 19 20 19 19 18 18 19 19 18 16 14 15 15
17 13 14 13 9 8 11 15 21 20 29 13 12 24 28 16 16 15 3 6 10 16 20 22 21 20 20 17 18 18 18 20 20 18 18 17 16 16 15 13 13 15 13 12
17 12 17 18 13 11 11 11 11 9 26 28 17 3 14 23 15 7 7 14 16 9 15 20 21 23 20 20 19 17 17 19 18 17 16 15 13 12 12 13 13 11 11 11
11 9 16 13 9 5 9 14 14 17 20 17 16 5 19 16 7 6 12 15 18 18 11 21 24 24 24 22 20 18 18 17 17 16 13 10 10 11 11 12 10 9 9 9
18 18 20 17 23 18 16 14 14 17 18 20 26 25 10 13 10 11 13 17 17 16 3 22 26 26 24 22 21 20 17 17 16 13 10 10 10 10 10 10 9 9 9 8
18 22 23 24 23 23 23 23 20 22 25 26 26 31 28 23 21 24 17 20 17 13 9 21 25 26 24 23 22 19 18 17 14 10 9 9 8 10 10 9 9 9 9 9
18 19 17 26 23 23 27 27 27 26 26 29 30 38 30 30 29 28 24 20 17 12 9 21 25 23 23 22 21 18 19 15 12 9 8 8 9 10 9 9 9 9 9 9
26 23 15 18 13 16 22 23 23 28 26 27 31 33 27 31 28 27 24 19 16 12 7 20 23 22 21 19 17 19 17 13 9 8 7 9 9 9 9 9 9 10 11 10
21 18 15 11 7 10 17 11 11 13 17 22 31 31 28 27 24 24 22 19 9 5 4 19 22 19 19 20 21 19 15 10 9 9 10 10 9 8 8 10 11 13 12 10
13 17 8 8 13 19 26 15 8 16 21 22 26 23 22 21 19 21 15 9 6 8 11 23 19 17 20 23 20 17 13 12 12 12 12 10 9 8 9 11 14 13 11 10
12 15 16 8 5 5 5 9 12 18 27 8 19 19 15 13 18 8 7 6 5 8 20 24 20 22 22 20 18 15 14 15 15 13 11 10 8 8 10 12 13 12 10 10
10 13 25 23 10 10 14 20 25 10 7 9 12 15 13 16 16 12 12 10 15 17 27 24 24 22 19 18 17 17 17 17 16 13 10 8 8 9 10 11 11 12 11 9
8 8 4 10 9 6 18 25 11 17 24 20 8 11 16 14 15 14 13 13 16 22 27 27 26 22 18 18 19 19 20 20 18 14 9 9 9 10 10 11 12 12 11 10
9 19 12 7 13 16 19 18 19 8 15 18 14 9 12 18 17 17 14 14 14 24 26 24 23 20 20 20 20 22 21 22 17 13 12 12 11 11 11 12 11 10 10 10
18 24 17 17 22 23 21 23 16 9 4 11 9 10 11 15 17 15 12 16 17 30 26 22 21 20 22 21 22 22 22 19 16 15 14 14 12 11 11 9 8 6 6 6
15 21 22 19 26 25 24 21 11 10 5 7 6 10 10 13 16 15 15 17 20 32 30 22 20 21 21 22 22 22 23 19 17 16 14 13 12 10 10 8 7 6 5 6
16 19 21 23 25 21 21 19 8 11 5 6 7 10 13 16 19 15 17 20 28 31 28 26 22 21 20 21 21 21 21 19 17 15 14 11 9 8 8 8 7 7 5 6

GFSCGP_700_spd_042.txt.gz
Wind_Speed
11 15 19 19 21 26 26 29 35 37 34 32 32 38 47 43 42 45 43 39 38 47 42 41 44 45 43 46 48 46 50 50 46 39 36 37 39 38 38 39 39 37 36 35
16 19 17 19 21 26 28 30 35 34 30 29 35 41 39 36 45 39 42 45 42 37 43 42 38 37 46 49 48 51 54 54 52 44 39 42 39 37 39 40 40 36 36 35
18 19 21 22 25 26 26 28 30 31 27 26 35 39 41 40 37 37 39 34 44 42 44 40 36 43 41 41 43 42 55 59 60 54 48 48 43 43 41 43 33 29 36 31
21 21 23 25 27 24 30 27 31 30 29 29 24 27 38 41 40 36 39 38 37 40 44 49 45 42 45 45 46 49 55 60 57 52 50 52 44 40 36 35 31 31 31 27
22 21 22 27 28 28 36 31 30 30 33 33 32 28 42 36 40 40 34 37 40 42 40 40 51 50 53 54 57 59 55 57 60 58 57 52 42 36 32 34 34 33 29 28
24 21 22 23 25 26 29 29 30 33 33 24 37 35 41 38 39 37 36 33 34 36 38 43 40 42 59 62 61 59 51 48 43 37 38 36 36 30 32 31 32 28 29 29
22 21 18 18 17 20 20 23 20 20 20 18 34 35 36 40 33 39 35 33 32 26 30 29 32 36 33 34 31 30 36 40 35 33 33 30 29 27 32 32 27 26 25 25
20 23 17 14 23 23 21 20 11 12 16 19 29 21 31 28 30 35 36 32 28 23 33 36 27 27 32 31 30 29 39 36 35 28 30 28 28 27 34 30 26 25 23 24
22 23 24 25 24 17 22 22 8 20 26 24 32 33 34 30 30 30 36 31 33 28 23 22 31 29 27 25 26 31 31 37 28 29 30 28 26 30 31 29 27 26 25 23
19 32 25 28 22 24 24 21 18 10 5 17 23 31 26 21 23 29 29 28 25 23 24 25 26 27 25 25 28 29 25 28 27 27 28 27 25 28 31 31 29 25 21 18
21 25 29 23 22 20 19 18 16 11 13 10 14 18 21 16 18 18 28 29 24 17 20 18 20 23 22 26 30 33 24 24 22 23 24 25 26 30 31 26 23 17 16 15
17 19 29 29 26 24 25 21 11 17 19 23 20 32 22 21 29 16 19 22 9 15 18 27 25 26 30 33 34 31 25 22 21 21 21 22 23 23 22 20 16 14 15 15
21 11 19 22 23 8 12 12 20 18 18 22 16 25 23 39 23 17 11 6 7 2 14 14 32 30 18 19 18 22 23 23 22 20 17 16 16 17 16 15 14 15 16 18
26 23 22 24 29 18 23 25 22 21 21 23 25 29 24 31 35 6 3 6 13 8 17 3 23 29 28 24 22 21 18 20 20 18 20 20 19 17 15 14 15 18 17 17
15 20 20 25 28 27 29 33 37 32 30 30 29 27 28 23 28 18 14 15 12 5 11 9 26 30 30 26 26 25 22 19 25 25 23 19 17 14 14 15 16 16 16 14
24 25 18 23 22 23 29 30 33 34 28 31 28 28 25 22 22 24 21 14 10 5 9 12 21 27 29 26 26 25 22 23 22 22 21 17 14 14 15 15 15 13 13 15
14 14 16 25 17 20 20 24 25 30 24 26 28 20 17 18 19 22 13 10 9 7 5 14 20 25 25 26 27 26 25 24 21 17 14 12 14 14 13 12 13 14 13 13
9 14 11 20 19 11 10 19 15 18 14 16 14 11 21 14 15 18 16 13 12 9 8 11 7 27 32 28 26 27 23 20 18 14 13 12 11 12 12 12 14 12 11 11
12 15 9 6 12 20 25 20 31 32 37 23 21 21 20 21 16 12 11 16 13 11 16 9 7 31 35 30 27 25 19 19 14 11 10 9 10 11 12 14 12 11 13 11
13 15 9 11 6 4 6 16 25 29 27 11 14 14 11 6 12 11 4 5 7 21 16 16 17 33 31 31 26 19 20 16 14 13 12 6 9 9 11 12 12 15 14 13
17 12 13 18 11 10 13 15 22 14 15 21 17 18 15 16 15 18 13 9 9 22 22 20 28 38 34 30 24 23 20 18 22 15 11 11 7 6 11 11 13 14 13 13
10 7 4 8 7 4 19 31 15 23 30 25 28 22 19 19 22 20 23 12 11 17 21 21 33 34 35 30 22 24 25 28 18 11 12 14 9 9 11 12 14 12 10 10
9 16 15 10 19 22 22 20 26 23 27 10 9 17 19 20 24 25 27 17 15 16 24 30 32 37 34 26 29 29 27 20 15 14 16 13 14 8 7 12 11 12 10 10
20 25 18 22 20 23 28 24 22 26 15 6 5 8 18 16 20 18 21 14 19 21 31 26 39 37 32 29 29 25 21 17 16 18 13 12 16 12 11 10 10 9 8 8
23 19 17 20 30 25 31 23 25 18 11 12 8 10 14 14 16 15 10 16 23 26 38 37 34 31 25 32 27 20 18 21 17 16 13 13 11 10 10 9 8 9 8 8
16 15 17 26 23 32 30 22 23 17 5 7 10 11 12 16 16 10 4 16 16 38 41 38 34 27 23 28 22 16 22 18 14 14 15 9 10 7 9 8 6 4 5 6

GFSCGP_700_spd_045.txt.gz
Wind_Speed
8 10 12 15 18 22 25 29 30 32 25 27 26 34 37 33 27 32 43 36 44 46 46 54 48 44 37 38 41 47 53 56 51 48 47 45 44 40 40 32 28 31 37 38
13 14 13 18 17 18 20 24 29 33 28 25 30 37 41 39 38 33 21 42 39 41 45 43 53 50 44 37 36 41 47 47 48 48 44 43 43 43 43 39 34 33 38 37
14 16 19 19 22 23 23 27 32 34 29 27 31 36 43 49 42 39 36 30 27 34 45 40 36 46 45 45 43 47 52 49 47 47 50 53 50 51 50 47 39 34 32 31
13 15 18 19 21 22 29 24 27 27 27 27 22 26 34 40 45 37 42 35 34 36 27 33 42 37 43 36 41 42 46 49 48 49 56 58 59 55 49 46 40 37 32 27
18 19 19 21 21 20 29 28 30 32 33 30 29 23 39 30 39 37 36 37 32 32 36 29 30 40 46 43 32 34 41 46 47 51 53 56 58 55 51 46 41 35 30 24
18 12 14 15 20 26 31 29 28 31 30 20 30 26 42 34 41 43 34 28 33 28 29 37 37 39 44 54 50 41 43 46 48 53 57 59 57 58 43 39 37 31 25 22
15 17 15 16 24 21 16 22 8 6 7 15 31 26 38 33 32 34 34 33 33 33 29 27 35 34 45 52 57 52 52 54 56 57 60 62 50 39 35 32 30 24 20 21
14 19 18 18 22 22 27 24 7 5 4 8 34 12 29 26 27 33 30 31 38 37 36 29 28 35 36 31 38 58 62 64 68 67 58 42 34 30 30 28 25 20 21 22
19 19 23 20 21 23 25 23 22 13 24 6 11 31 27 27 23 27 29 28 38 40 36 33 27 30 31 34 33 31 34 39 37 34 34 33 30 31 30 26 23 21 21 23
14 33 24 20 23 24 22 28 11 14 3 3 7 21 15 24 28 22 17 19 35 38 31 25 27 23 30 36 32 28 30 28 28 30 33 31 29 33 26 25 24 23 22 25
15 18 37 30 25 25 30 18 18 20 6 3 4 2 13 25 31 36 35 26 20 26 27 24 30 38 36 36 41 38 37 33 34 31 30 30 30 31 27 25 24 24 25 23
20 18 30 41 27 24 23 14 12 2 3 11 14 18 18 24 34 34 43 41 20 17 25 28 30 23 40 38 37 36 36 37 31 27 26 24 25 26 26 24 24 23 19 18
28 12 15 21 9 11 13 20 23 21 15 19 10 11 22 30 27 39 36 31 24 17 15 22 40 26 38 38 44 43 41 35 27 23 22 22 22 21 21 19 18 16 16 16
18 15 13 16 25 23 31 30 30 18 15 29 27 27 28 32 26 38 25 7 14 6 14 25 42 39 42 40 38 38 35 31 25 22 21 21 21 18 17 17 17 17 17 16
19 23 25 33 31 27 29 31 29 33 34 34 44 37 34 26 21 26 19 12 14 5 16 22 13 30 42 38 38 35 35 35 25 26 27 22 18 18 19 19 19 18 17 15
31 22 28 30 23 17 25 27 27 27 28 14 20 16 12 8 14 14 22 16 15 20 20 19 23 16 35 44 35 29 30 33 31 26 25 22 21 20 19 17 16 15 14 15
19 12 15 9 8 15 15 4 8 11 14 14 14 12 11 10 13 14 18 24 22 18 14 20 15 13 33 30 29 33 31 32 31 26 24 21 20 18 15 17 14 14 12 11
8 13 10 16 14 2 3 17 7 15 18 20 21 17 21 16 16 12 15 16 18 24 20 16 14 16 25 44 36 34 28 29 28 24 23 21 17 16 16 13 14 13 12 13
8 12 9 6 12 22 13 9 17 22 32 25 26 19 23 23 23 11 12 12 10 16 22 17 14 12 21 37 34 31 26 18 23 24 19 15 14 14 14 14 14 13 11 11
8 15 13 10 5 4 5 18 22 26 24 12 10 19 19 24 25 30 15 15 9 18 23 20 18 10 36 33 27 19 17 22 22 18 12 9 11 14 14 13 14 13 13 14
15 13 16 14 11 12 17 22 27 6 6 18 29 32 28 24 21 27 22 22 16 16 23 19 20 22 37 29 23 18 24 23 16 10 9 9 9 12 12 14 14 15 17 14
17 6 8 7 6 7 27 30 26 26 28 25 25 17 19 23 22 29 27 25 15 20 23 18 19 21 39 22 18 22 23 21 15 9 6 11 11 9 11 15 17 18 15 14
8 18 24 11 16 21 26 28 27 35 31 31 22 11 12 20 22 26 31 27 23 22 20 25 18 30 32 24 18 26 22 19 15 9 7 11 10 12 12 14 16 15 12 13
22 23 31 26 15 25 28 33 31 22 26 27 14 14 11 15 20 24 24 25 24 23 25 27 21 31 32 25 24 24 22 17 14 14 13 11 13 13 11 15 17 15 13 11
17 23 20 19 25 28 32 43 23 23 25 19 14 14 15 18 15 15 13 14 17 20 25 39 39 35 31 29 28 24 20 18 13 18 15 11 14 13 14 15 14 13 12 10
18 18 14 18 27 26 34 39 20 21 24 8 11 12 15 13 8 6 6 10 15 17 22 29 24 35 34 28 25 21 18 14 18 14 14 14 13 13 13 12 10 10 10 10

GFSCGP_700_spd_048.txt.gz
Wind_Speed
3 7 8 13 14 13 15 18 20 20 18 21 29 38 36 30 32 34 35 36 39 38 47 54 57 48 42 36 30 27 38 35 35 33 37 39 44 39 38 39 39 36 31 33
6 8 7 12 12 12 15 20 23 25 22 21 24 39 44 40 38 37 36 34 30 39 38 32 31 43 50 45 38 36 35 42 45 42 43 44 43 44 38 35 40 38 38 38
8 9 8 11 12 14 17 18 17 18 23 24 24 40 41 46 41 41 41 40 39 32 31 36 39 40 35 45 53 47 41 38 39 42 41 40 41 46 47 45 45 43 39 39
4 9 11 11 12 18 21 23 27 30 30 20 23 22 40 39 40 38 37 39 41 44 37 30 29 39 43 39 34 51 46 42 41 40 44 46 48 50 46 48 49 49 45 44
15 18 15 14 17 15 22 26 28 33 33 26 30 24 45 29 33 37 38 34 34 39 42 37 31 28 34 41 39 35 46 43 45 43 45 49 51 50 49 49 51 51 49 50
18 7 10 14 15 17 19 21 21 24 25 11 28 21 59 40 40 39 32 28 24 25 37 42 34 31 34 31 37 36 44 41 46 41 43 47 49 48 46 48 49 53 55 43
11 16 15 12 16 18 21 22 7 6 2 6 11 14 37 27 30 29 32 33 31 32 31 42 40 37 34 34 36 40 39 48 44 42 45 50 51 49 48 49 53 54 43 28
6 10 12 12 17 21 17 17 6 4 6 12 29 12 17 9 12 24 26 28 31 31 34 36 45 40 37 37 40 43 47 50 51 53 53 54 54 53 50 49 54 45 29 21
9 9 12 23 17 16 19 18 20 19 20 7 12 23 21 21 16 20 23 26 30 36 37 41 43 44 39 37 44 44 42 46 46 52 54 55 55 54 49 48 40 32 23 21
9 22 13 19 22 28 17 17 11 6 3 5 7 15 19 23 23 21 25 28 28 30 35 41 39 48 39 38 36 38 37 34 39 43 42 42 47 51 44 35 33 25 21 21
21 17 24 31 28 31 27 19 15 10 9 4 5 7 14 28 22 27 31 31 33 34 34 39 39 38 41 38 40 40 40 38 37 38 36 35 35 37 35 32 30 25 23 23
20 17 24 31 11 7 11 15 3 5 4 7 7 18 8 19 30 31 38 39 49 31 37 26 29 40 40 43 38 37 35 38 35 31 33 34 34 34 33 32 29 25 25 26
19 10 14 13 4 9 32 18 20 17 15 17 7 16 24 31 35 40 39 40 37 23 34 21 25 38 36 39 41 35 31 37 37 37 33 36 35 32 31 30 29 28 26 24
18 17 17 16 29 29 35 31 20 22 15 21 32 37 37 34 32 32 28 29 16 18 21 16 20 29 34 36 35 35 32 38 35 33 33 34 30 26 24 27 26 21 20 21
16 25 28 37 36 34 34 27 20 27 30 30 37 33 24 22 21 14 22 21 24 16 5 12 22 22 30 34 34 37 34 42 40 40 35 29 25 25 25 24 23 23 22 19
25 27 28 29 14 12 19 20 23 23 23 23 19 27 20 30 25 19 20 24 27 10 12 16 22 24 18 46 50 45 29 33 38 37 27 29 29 28 28 26 23 22 22 19
31 14 14 10 16 22 10 5 10 11 11 17 23 25 25 25 25 26 21 21 16 11 14 13 19 26 15 26 46 44 36 37 30 28 32 31 30 26 26 25 23 22 21 19
19 13 11 15 13 3 1 11 12 16 20 20 30 31 25 30 32 33 22 20 19 17 19 18 19 26 13 11 26 43 32 34 33 35 36 32 30 29 27 24 20 18 17 17
9 14 11 5 10 20 8 10 16 25 35 30 25 21 19 25 33 28 25 19 23 17 17 16 21 27 15 19 29 41 35 36 38 36 33 30 29 27 23 18 19 16 15 16
9 14 18 10 4 5 9 15 21 31 29 11 16 22 37 38 36 34 28 24 26 24 16 19 22 28 16 26 41 48 37 39 36 35 32 29 25 21 18 18 18 17 18 17
17 14 22 23 11 12 14 14 29 11 20 31 37 37 34 36 32 31 25 26 27 22 18 18 21 31 27 42 20 41 40 35 33 32 27 23 22 19 19 19 20 20 19 20
11 9 10 9 7 6 14 26 23 27 44 38 29 28 27 22 24 21 22 24 24 21 19 17 20 23 12 36 38 34 31 30 27 24 22 17 18 19 20 20 22 19 20 19
8 12 24 17 20 28 21 27 25 32 37 26 30 29 18 18 22 20 22 21 19 22 21 21 24 19 20 29 30 24 30 26 21 14 11 17 20 19 23 21 20 19 19 17
22 27 24 27 19 23 27 28 29 45 26 25 29 21 13 19 18 15 14 16 17 22 22 18 16 13 33 33 32 23 23 19 20 11 12 17 16 20 22 19 20 19 18 17
20 17 20 31 22 24 32 32 45 21 22 26 21 13 13 14 12 11 9 11 14 15 15 14 12 23 28 29 25 22 22 19 18 10 12 15 18 18 17 20 20 20 19 16
12 21 25 28 24 30 34 41 31 24 24 21 10 10 10 12 5 3 4 4 9 12 12 7 12 17 35 30 22 23 17 14 11 16 16 18 16 16 18 18 17 17 16 14